Regional Weather Roundup
Issued by NWS

Home | Current Version | Previous Version | Graphics & Text | Print | Product List | Glossary On
Versions: 1 2 3 4 5 6 7 8 9 10 11 12 13 14 15 16 17 18 19 20 21 22 23 24 25 26 27 28 29 30 31 32 33 34 35 36 37 38 39 40 41 42 43 44 45 46 47 48 49 50
000
ASUS45 KBOU 270907
RWRCO

WEATHER ROUNDUP FOR COLORADO
NATIONAL WEATHER SERVICE DENVER/BOULDER CO
200 AM MST MON FEB 27 2017

NOTE: "FAIR" INDICATES FEW OR NO CLOUDS BELOW 12000 FEET WITH NO
SIGNIFICANT WEATHER AND/OR OBSTRUCTIONS TO VISIBILITY.

COZ001>005-013-030-031-271000-
...NORTHWEST COLORADO...

CITY           SKY/WX    TMP DP  RH WIND       PRES   REMARKS
CRAIG          CLOUDY    22  10  60 CALM      29.70F
HAYDEN         FAIR      21   7  53 E12       29.71F WCI   9
MEEKER         CLOUDY    26  14  60 MISG      29.72S
MOUNT WERNER   NOT AVBL
STEAMBOAT SPGS CLOUDY    13   5  70 W5        29.72F WCI   5
WALDEN         NOT AVBL
$$

COZ006>008-011-271000-
...WEST CENTRAL VALLEYS...

CITY           SKY/WX    TMP DP  RH WIND       PRES   REMARKS
GRAND JUNCTION CLOUDY    39  16  39 S15       29.74F
MONTROSE       MOCLDY    32  11  41 E13       29.79F WCI  22
EAGLE          CLOUDY    21   6  52 E8        29.77F WCI  11
RIFLE          CLOUDY    30  15  53 SW6       29.74F WCI  24
DELTA          CLOUDY    37  12  36 N8        29.79F
NUCLA          CLOUDY    36  19  51 S9        29.83F
$$

COZ017>023-064>068-271000-
...SOUTHWEST COLORADO...

CITY           SKY/WX    TMP DP  RH WIND       PRES   REMARKS
DURANGO        CLOUDY    28  17  63 SE3       29.88F
CORTEZ         CLOUDY    36  21  54 SW5       29.85F
PAGOSA SPRINGS CLOUDY    25  13  62 CALM      29.89F
TELLURIDE      FAIR      24  11  59 SE15      29.81F WCI  11
WOLF CREEK PAS SNOW       9   7  92 S36G45    29.79F VSB 1/2 WCI -16
$$

COZ009-010-012-014-032>034-037-058>063-271000-
...CENTRAL COLORADO...

CITY           SKY/WX    TMP DP  RH WIND       PRES   REMARKS
ASPEN          FAIR      14   6  70 NW3       29.73F
BUENA VISTA    MOCLDY    24   3  41 CALM      29.76F
COPPER MTN     FAIR      12   0  57 MISG      29.67F
BERTHOUD PASS  FAIR       3  -8  60 W40G53    29.58F HAZE    WCI -24
COTTONWOOD PAS MOCLDY    21   5  49 W8        29.72F WCI  12
GUNNISON       FAIR       6  -1  73 E5        29.86F WCI  -3
KREMMLING      MOCLDY    19  10  68 CALM      29.76F
LEADVILLE      FAIR       7  -5  57 E7        29.70F WCI  -5
MONARCH PASS     N/A      5   1  85 SW35      29.81F WCI -20
SALIDA         FAIR      29   1  29 SW17G29   29.85F WCI  17
SUNLIGHT       NOT AVBL
WILKERSON PASS FAIR       9   0  66 SW18G26   29.67F WCI -10
$$

COZ069>075-271000-
...SAN LUIS VALLEY/SANGRE DE CRISTO MOUNTAINS...

CITY           SKY/WX    TMP DP  RH WIND       PRES   REMARKS
ALAMOSA        MOCLDY    24  12  60 S10       29.85F WCI  14
LA VETA PASS   FAIR      18   9  68 S37G58    29.69F WCI  -4
SAGUACHE       FAIR      12   3  67 N6        29.86F WCI   3
$$

COZ035-036-038>040-271000-
...NORTHERN COLORADO FRONT RANGE...

CITY           SKY/WX    TMP DP  RH WIND       PRES   REMARKS
DENVER INTL AP FAIR      19   4  51 W3        29.71F
DMNS CITY PARK   N/A     23   7  50 SW2G14    29.72F
AURORA         PTCLDY    22   3  44 S8        29.72F WCI  12
FRONT RANGE AP FAIR      23   9  54 S13       29.72F WCI  11
ERIE MUNI ARPT FAIR      17  12  80 SE3       29.72F
BOULDER MUN AP FAIR      23  14  68 CALM      29.72F
CENTENNIAL     FAIR      20   6  55 SE5       29.71F WCI  13
BROOMFIELD     FAIR      23   9  54 CALM      29.71F
FORT COLLINS   FAIR      20  14  77 NE5       29.74F WCI  13
LONGMONT       NOT AVBL
$$

COZ041-046-047-076>085-087-088-271000-
...PIKES PEAK/PALMER DIVIDE AND SOUTHERN FOOTHILLS...

CITY           SKY/WX    TMP DP  RH WIND       PRES   REMARKS
COLO. SPRINGS  FAIR      19  -2  39 N8        29.73F WCI   9
A. F. ACADEMY  FAIR      21   0  39 N13       29.70F WCI   9
SCHRIEVER AFB  FAIR      23   0  37 CALM      29.73F
ELLICOTT       NOT AVBL
FALCON         FAIR      16  -1  47 N6        29.73F WCI   8
FORT CARSON    FAIR      29   1  29 NW6       29.71F WCI  23
LIMON          FAIR       6   3  87 N7        29.76F WCI  -6
MONUMENT HILL  FAIR      28   3  34 SW16      29.72F WCI  17
TRINIDAD       FAIR      19   2  47 W12       29.77F WCI   7
$$

COZ042>045-048>051-090-091-271000-
...NORTHEAST COLORADO...

CITY           SKY/WX    TMP DP  RH WIND       PRES   REMARKS
GREELEY ARPT   FAIR      15  11  83 NW6       29.76F WCI   6
AKRON          FAIR      24  11  57 S10       29.75F WCI  14
BURLINGTON     FAIR      23  12  62 S13       29.80F WCI  11
WRAY           NOT AVBL
STERLING       FAIR      23  12  63 S6        29.77S WCI  16
HOLYOKE        FAIR      19  12  73 S5        29.82F WCI  13
FORT MORGAN    FAIR      15  10  77 W7        29.75F WCI   6
$$

COZ086-089-092>099-271000-
...SOUTHEAST COLORADO...

CITY           SKY/WX    TMP DP  RH WIND       PRES   REMARKS
PUEBLO         FAIR      16  -2  45 NW3       29.76F
LA JUNTA       FAIR      29   7  39 SW10      29.77F WCI  20
LAMAR          FAIR      18   8  65 NE9       29.79F WCI   7
SPRINGFIELD      N/A     17   9  70 SW5       29.78F WCI  10
$$



USA.gov is the U.S. government's official web portal to all federal, state and local government web resources and services.